Rapid City, SD

4:11 AM MST on December 21, 2014 (GMT -0700)
Rapid Valley | Change Station
CLOSE
Current Station
Personal Weather Station
Location: Rapid City, SD
Elevation: 3176 ft
Nearby Weather Stations

Elev 3176 ft 44.07 °N, 103.16 °W | Updated 1 minute ago

Clear
Clear
24.0 °F
Feels Like 24 °F
N
0.0
Wind Variable Wind from NE

Today
High -- | Low -- °F
--% Chance of Precip.
Yesterday
High -- | Low -- °F
Precip. -- in
7:24 AM 4:17 PM
Waning Crescent, 0% visible
Pressure 29.70 in
Visibility 10.0 miles
Clouds Clear
Windchill 24 °F
Dew Point 20 °F
Humidity 83%
Rainfall 0.00 in
Snow Depth Not available.
UV 0.0 out of 12
Pollen .10 out of 12
Air Quality Not available.
Flu Activity Not available.
METAR KRAP 211052Z AUTO 00000KT 10SM CLR M05/M07 A2963 RMK AO2 SLP058 T10501067

More Conditions Fewer Conditions

Pressure 29.70 in
Visibility 10.0 miles
Clouds Clear
Windchill 24 °F
Dew Point 20 °F
Humidity 83%
Rainfall 0.00 in
Snow Depth Not available.
UV 0.0 out of 12
Pollen .10 out of 12
Air Quality Not available.
Flu Activity Not available.
METAR KRAP 211052Z AUTO 00000KT 10SM CLR M05/M07 A2963 RMK AO2 SLP058 T10501067

More Conditions Fewer Conditions

10-Day Weather Forecast

Almanac

Astronomy

Dec. 21, 2014 Rise Set
Actual Time
Civil Twilight
Nautical Twilight
Astronomical Twilight
Moon
Length of Visible Light
Length of Day
Tomorrow will be .
, % of the Moon is Illuminated

Today's Extremes

State Highs State Lows

Community

WunderPhotos

Upload Photos

1,779,367 photos uploaded!

WunderBlogs® & News

Nearby

Air Quality

  Air Quality AQ Index Pollutant
Not available.

Snow Depth

Station Depth Elevation

Earthquake Activity

City Distance Mag. Time & Date
Minimum magnitude displayed is 2.5.

Coastal Water Temperatures

Place Temperature

Nearby Weather Stations